Regional Weather Roundup
Issued by NWS

Home | Current Version | Previous Version | Text Only | Print | Product List | Glossary Off
Versions: 1 2 3 4 5 6 7 8 9 10 11 12 13 14 15 16 17 18 19 20 21 22 23 24 25 26 27 28 29 30 31 32 33 34 35 36 37 38 39 40 41 42 43 44 45 46 47 48 49 50

000
ASUS43 KMPX 211301
RWRMN
WEATHER ROUNDUP FOR MINNESOTA
NATIONAL WEATHER SERVICE TWIN CITIES/CHANHASSEN MN
800 AM CDT SAT OCT 21 2017


NOTE: "FAIR" INDICATES FEW OR NO CLOUDS BELOW 12,000 FEET WITH NO
SIGNIFICANT WEATHER AND/OR OBSTRUCTIONS TO VISIBILITY. N/A MEANS
CURRENT SKY AND/OR WEATHER CONDITIONS ARE NOT AVAILABLE.

MNZ060>063-068>070-211400-
   Twin Cities Metro

CITY           SKY/WX    TMP DP  RH WIND       PRES   REMARKS
TWIN CITIES    LGT RAIN  60  58  92 SE14      29.69F
ST PAUL        LGT RAIN  59  59 100 SE9       29.71F
CRYSTAL        RAIN      59  55  87 S16       29.66S FOG
BLAINE         LGT RAIN  61  57  88 S17G24    29.67S
LAKEVILLE      LGT RAIN  55  55 100 S12       29.69R
EDEN PRAIRIE   RAIN      59  57  93 SE12      29.66F FOG
SOUTH ST PAUL  LGT RAIN  59  59 100 S10       29.70F
LAKE ELMO      LGT RAIN  59  57  94 SE8       29.72F
$$
MNZ001>005-007-008-013>017-022>024-027-028-211400-
   Northwest Minnesota

CITY           SKY/WX    TMP DP  RH WIND       PRES   REMARKS
BEMIDJI        CLOUDY    63  56  80 S15G23    29.50F
HALLOCK        CLEAR     64  57  77 S21G26    29.32S
ROSEAU         CLEAR     63  55  77 S12       29.40S
WARROAD        CLEAR     61  55  82 SE14      29.42S
CROOKSTON      PTCLDY    64  57  77 S25       29.39R
FOSSTON        CLEAR     61  54  77 S17G25    29.45R
DETROIT LAKES  MOCLDY    61  55  82 S14G20    29.49S
MOORHEAD       PTCLDY    63  55  77 S22       29.43S
PARK RAPIDS    CLOUDY    63  57  81 S21G30    29.52S
MAHNOMEN       FAIR      61  56  84 S14G23    29.45S
$$
MNZ006-009>011-018-025>026-211400-
   North Central Minnesota

CITY           SKY/WX    TMP DP  RH WIND       PRES   REMARKS
BAUDETTE       PTCLDY    61  55  81 SE13G23   29.46F
FLAG ISLAND    PTCLDY    57  52  82 SE18      29.42S
INTL FALLS     PTCLDY    61  52  72 S8G16     29.55R
WASKISH        CLEAR     63  55  77 SE13G20   29.49F
BIG FORK       CLOUDY    61  54  77 S13G20    29.57R
LONGVILLE      CLOUDY    63  55  77 S15G22    29.56S
GRAND RAPIDS   CLOUDY    61  53  75 S16G22    29.61S
CRANE LAKE     CLOUDY    61  52  72 S8        29.62S
ORR            CLOUDY    61  50  67 SE13G20   29.57F
COOK           CLOUDY    61  52  72 S9G17     29.63R
WALKER         CLOUDY    61  55  79 S15       29.53S
$$
MNZ012-019>021-037-211400-
   Northeast Minnesota

CITY           SKY/WX    TMP DP  RH WIND       PRES   REMARKS
DULUTH         CLOUDY    60  52  74 S15       29.68R
ELY            MOCLDY    59  48  67 S9        29.66S
HIBBING        CLOUDY    59  51  75 S8G22     29.63S
EVELETH        CLOUDY    60  51  72 S13G20    29.65F
DULUTH HARBOR  CLOUDY    64  54  68 S15       29.68R
TWO HARBORS    MOCLDY    61  54  77 SE6       29.68R
SILVER BAY     CLOUDY    55  50  82 SE3       29.68F
GRAND MARAIS     N/A     56  50  80 NE3       29.74R
G MARAIS ARPRT CLOUDY    54  45  71 SE5       29.75S
$$
MNZ029>031-032-039>041-046>048-054>057-064-211400-
   West Central Minnesota

CITY           SKY/WX    TMP DP  RH WIND       PRES   REMARKS
FERGUS FALLS   MOCLDY    61  55  82 S17       29.49R
WHEATON        CLOUDY    61  55  82 SE13      29.48S
MORRIS         MOCLDY    63  57  82 S15G21    29.50S
ALEXANDRIA     CLOUDY    62  56  80 S21G28    29.55S
ELBOW LAKE     MOCLDY    60  56  88 SE18G25   29.50S
WADENA         CLOUDY    61  55  82 MISG      29.53R
GLENWOOD       PTCLDY    61  57  88 S16G23    29.55F
APPLETON       CLOUDY    64  55  72 SE9G16    29.50S
BENSON         CLOUDY    63  55  77 S13G20    29.54S
ORTONVILLE     CLOUDY    61  55  82 NE8       29.48S
MADISON        CLOUDY    66  59  77 S12       29.50R
WILLMAR        MOCLDY    64  57  77 S12G20    29.57F
$$
MNZ033>034-036-042>043-049>051-058-059-211400-
   Central Minnesota

CITY           SKY/WX    TMP DP  RH WIND       PRES   REMARKS
ST CLOUD       LGT RAIN  61  57  87 SE14      29.61S
SAUK CENTRE    CLOUDY    61  55  81 SE17G25   29.57S
PAYNESVILLE    CLOUDY    62  56  81 SE15G21   29.59S
AITKIN         CLOUDY    59  52  77 S14G22    29.60S
PINE RIVER     CLOUDY    61  54  77 S15G23    29.61S
BRAINERD       CLOUDY    62  54  74 S14G22    29.60S
STAPLES        CLOUDY    61  54  77 S15       29.55F
LONG PRAIRIE   CLOUDY    61  54  77 SE16G24   29.58S
LITTLE FALLS   CLOUDY    61  48  63 SE14      29.59F
LITCHFIELD     CLOUDY    64  57  77 SE8       29.60S
BUFFALO        CLOUDY    60  56  84 SE15G24   29.64S
MAPLE LAKE     CLOUDY    62  58  88 S13G21    29.64S
HUTCHINSON     LGT RAIN  62  58  87 SE14G21   29.62S
$$
MNZ037-044-045-052-053-211400-
   East Central Minnesota

CITY           SKY/WX    TMP DP  RH WIND       PRES   REMARKS
PRINCETON      CLOUDY    64  55  72 SE15G24   29.64S
MORA           CLOUDY    59  50  72 S12       29.67S
CAMBRIDGE      CLOUDY    61  52  72 SE13G24   29.67R
RUSH CITY      RAIN      60  54  80 S8G20     29.68S
MOOSE LAKE     CLOUDY    61  52  72 S9        29.66R
HINCKLEY       CLOUDY    63  54  72 S13G20    29.68R
CLOQUET        CLOUDY    63  50  63 S7        29.67S
MCGREGOR       CLOUDY    63  54  72 S16G24    29.63S
$$
MNZ071>073-080-081-089-090-097-098-211400-
   Southwest Minnesota

CITY           SKY/WX    TMP DP  RH WIND       PRES   REMARKS
MONTEVIDEO     CLOUDY    64  57  77 S12G17    29.52S
GRANITE FALLS  CLOUDY    67  60  79 SE17G25   29.55S
CANBY          PTCLDY    65  58  80 S10G18    29.51R
MARSHALL       CLOUDY    66  59  78 S18G26    29.53S
REDWOOD FALLS  CLOUDY    66  55  67 S20       29.55F
OLIVIA         CLOUDY    63  55  77 S13       29.56F
PIPESTONE      MOCLDY    63  57  82 S15G25    29.53F
WORTHINGTON    LGT RAIN  61  59  93 S17G24    29.60S
JACKSON        CLOUDY    61  59  94 S18       29.65S
TRACY          CLOUDY    65  60  83 S20G35    29.55F
SLAYTON        CLOUDY    64  60  87 S18G24    29.58S
$$
MNZ065>067-074>077-082>085-091>093-211400-
   South Central Minnesota

CITY           SKY/WX    TMP DP  RH WIND       PRES   REMARKS
MANKATO        RAIN      59  58  96 S18G29    29.64F
NEW ULM        LGT RAIN  61  57  88 S15G22    29.62R
ST JAMES       LGT RAIN  61  61 100 SE18G29   29.64R
FAIRMONT       LGT RAIN  60  58  92 S7        29.66F
GLENCOE        LGT RAIN  61  62 100 SE13G22   29.62F
FARIBAULT      LGT RAIN  59  55  88 SE20G26   29.70S
OWATONNA       RAIN      57  55  94 S20G25    29.72R
WASECA         HVY RAIN  55  54  94 S16G25    29.72R
$$
MNZ078>079-086>088-094>096-211400-
   Southeast Minnesota

CITY           SKY/WX    TMP DP  RH WIND       PRES   REMARKS
ROCHESTER      LGT RAIN  58  55  90 S18       29.80R
RED WING       LGT RAIN  61  54  77 S14G20    29.74S
STANTON        CLOUDY    61  56  84 S21G32    29.69S
DODGE CENTER   LGT RAIN  57  55  94 S23G33    29.76R
WINONA         CLOUDY    59  54  82 S5        29.81R
AUSTIN         HVY RAIN  59  55  88 S15G22    29.78R
PRESTON        CLOUDY    58  54  85 S15G22    29.82R
$$
ABBREVIATIONS USED IN REMARKS
   TC - TEMPERATURES IN CELSIUS
  WCI - WIND CHILL INDEX
   HX - HEAT INDEX
  VSB - VISIBILITY
$$



USA.gov is the U.S. government's official web portal to all federal, state and local government web resources and services.